Find Telecom 2B

NORAD ID: 21939 Int'l Des: 1992-021 Owner: FTEL Country: F operational
HEOCIRCULAR

現在のビュー

3D地球を読み込み中...

About Telecom 2B

Telecom 2B (NORAD 21939) is a satellite launched Apr 15, 1992 by FTEL of F. It operates in HEO, CIRCULAR orbit with a mass of 2275.00 kg.

次回通過

Passes for default location (London). Set your location on the main map for personalized predictions.

高度履歴

Loading altitude history...

軌道要素

1 21939U 92021A 26194.83771233 -.00000294 00000-0 00000+0 0 9999
2 21939 14.5574 3.5217 0017437 99.4468 87.7528 0.99512218117656
Epoch: Jul 13, 2026 • Age: 11 hours

現在のステータス

高度 36032.1 km
遠地点 / 近地点 N/A
速度 3.06 km/s
衛星直下点 -3.80°S, 43.49°W
打ち上げ日 Apr 15, 1992
運用期間 34.2 years
タイプ other

技術仕様

分類 Payload
質量 2275.00 kg
乾燥質量 1130.00 kg
総質量 2275.00 kg
長さ 3.10 m
直径 1.90 m
スパン 22.00 m
形状 Box + 2 Pan
製造者 MMST
バスタイプ Eurostar 2000
フェーズステータス In Orbit
所有者/国 FTEL/F

Most Searched